Total_Precipitation_Accumulation
0.00 0.01 0.01 0.02 0.02 0.03 0.06 0.09 0.18 0.24 0.17 0.19 0.34 0.52 0.66 0.77 0.99 1.13 1.15 1.09 1.10 1.41 1.83 2.05 2.33 2.73 3.47 4.16 4.79 4.85 5.01 4.44 3.79 3.22 2.81 2.64 2.39 2.14 2.10 1.96 1.77 1.63 1.44 1.36
0.02 0.04 0.03 0.02 0.03 0.05 0.09 0.12 0.20 0.22 0.15 0.17 0.34 0.60 0.79 0.88 0.86 0.93 0.96 1.00 1.08 1.46 1.92 2.28 2.80 3.13 3.12 3.61 4.27 4.25 3.87 3.55 3.09 2.62 2.40 2.22 2.12 1.87 1.69 1.52 1.42 1.27 1.17 1.18
0.04 0.05 0.03 0.03 0.05 0.10 0.12 0.14 0.18 0.16 0.15 0.22 0.40 0.75 1.03 0.97 0.74 0.67 0.72 0.77 0.92 1.27 1.77 2.20 2.61 2.99 2.94 3.25 3.33 2.89 2.59 2.53 2.43 2.20 2.08 2.02 1.95 1.76 1.46 1.18 1.06 0.99 0.93 0.90
0.03 0.03 0.03 0.04 0.06 0.07 0.08 0.08 0.07 0.07 0.13 0.28 0.42 0.94 1.32 1.12 0.84 0.70 0.70 0.81 0.88 0.98 1.16 1.47 1.79 2.21 2.40 2.42 2.29 2.15 2.04 1.99 2.11 2.08 1.86 1.70 1.40 1.25 1.09 0.92 0.92 0.92 0.82 0.75
0.03 0.03 0.03 0.04 0.05 0.05 0.05 0.04 0.05 0.08 0.13 0.27 0.47 0.79 1.18 1.17 1.12 0.97 0.83 0.86 0.78 0.72 0.79 0.99 1.10 1.31 1.59 1.76 1.74 1.64 1.84 1.91 1.90 1.84 1.77 1.71 1.45 1.22 1.10 1.08 1.11 1.02 0.90 0.77
0.05 0.05 0.04 0.03 0.04 0.04 0.04 0.05 0.12 0.25 0.37 0.69 0.68 0.73 1.07 1.02 0.98 0.96 0.78 0.66 0.61 0.56 0.61 0.78 0.84 0.88 1.00 1.10 1.16 1.23 1.45 1.64 1.66 1.61 1.58 1.58 1.48 1.33 1.16 1.07 1.01 0.93 0.88 0.80
0.14 0.12 0.09 0.05 0.05 0.05 0.05 0.09 0.32 0.69 1.00 1.17 0.72 0.70 0.89 0.78 0.79 0.85 0.65 0.42 0.38 0.42 0.44 0.53 0.59 0.64 0.70 0.72 0.78 0.88 1.06 1.22 1.33 1.38 1.38 1.38 1.47 1.33 1.13 0.94 0.92 0.86 0.75 0.71
0.15 0.18 0.10 0.05 0.05 0.06 0.06 0.07 0.19 0.34 0.49 0.70 0.74 1.09 1.02 0.65 0.62 0.53 0.35 0.24 0.22 0.34 0.35 0.34 0.36 0.39 0.48 0.48 0.55 0.64 0.72 0.82 0.94 1.13 1.27 1.18 1.23 1.12 0.99 1.04 0.97 0.84 0.69 0.70
0.07 0.06 0.05 0.05 0.05 0.07 0.05 0.05 0.06 0.10 0.16 0.44 0.82 1.17 0.96 0.55 0.50 0.36 0.24 0.18 0.20 0.24 0.30 0.29 0.26 0.25 0.29 0.31 0.36 0.46 0.61 0.74 0.78 0.86 1.06 1.13 1.06 1.01 1.03 1.07 1.01 0.91 0.82 0.73
0.04 0.02 0.04 0.05 0.05 0.07 0.06 0.06 0.06 0.07 0.15 0.33 0.69 1.05 1.08 0.80 0.57 0.35 0.26 0.25 0.30 0.27 0.32 0.35 0.26 0.21 0.25 0.27 0.31 0.42 0.53 0.70 0.84 0.83 0.83 0.88 1.03 1.08 1.13 1.11 0.94 0.86 0.83 0.80
0.04 0.02 0.03 0.04 0.06 0.08 0.08 0.08 0.09 0.10 0.12 0.21 0.52 0.76 0.66 0.63 0.45 0.33 0.34 0.40 0.28 0.24 0.27 0.30 0.23 0.21 0.25 0.27 0.32 0.40 0.50 0.74 0.89 0.81 0.82 0.90 1.00 1.06 1.10 1.23 1.14 0.98 0.90 0.85
0.05 0.03 0.04 0.08 0.11 0.10 0.10 0.10 0.11 0.14 0.16 0.17 0.27 0.48 0.40 0.45 0.41 0.48 0.53 0.48 0.36 0.32 0.27 0.29 0.27 0.30 0.30 0.34 0.37 0.45 0.53 0.69 0.79 0.80 0.84 0.88 0.94 0.97 0.98 1.03 1.08 1.08 0.97 0.88
0.06 0.05 0.07 0.21 0.31 0.22 0.14 0.10 0.11 0.13 0.13 0.16 0.31 0.50 0.42 0.45 0.46 0.49 0.49 0.45 0.47 0.47 0.40 0.37 0.36 0.42 0.38 0.38 0.44 0.50 0.59 0.67 0.76 0.91 0.89 0.84 0.84 0.79 0.79 0.85 0.91 0.99 1.05 1.06
0.07 0.06 0.08 0.22 0.33 0.35 0.26 0.17 0.16 0.13 0.14 0.17 0.24 0.44 0.42 0.54 0.65 0.52 0.53 0.48 0.45 0.44 0.40 0.34 0.32 0.35 0.42 0.45 0.48 0.55 0.63 0.71 0.79 0.79 0.79 0.81 0.79 0.79 0.84 0.90 0.92 0.95 0.99 1.06
0.09 0.07 0.05 0.09 0.17 0.20 0.21 0.20 0.18 0.13 0.12 0.17 0.22 0.34 0.47 0.58 0.68 0.57 0.54 0.59 0.59 0.44 0.35 0.31 0.28 0.36 0.48 0.53 0.52 0.53 0.61 0.72 0.81 0.85 0.81 0.75 0.77 0.82 0.85 0.87 0.88 0.90 0.95 0.98
0.15 0.11 0.10 0.11 0.14 0.14 0.16 0.18 0.15 0.11 0.09 0.09 0.18 0.34 0.49 0.61 0.63 0.58 0.48 0.45 0.56 0.49 0.35 0.31 0.32 0.40 0.47 0.49 0.48 0.44 0.49 0.59 0.70 0.79 0.85 0.89 0.86 0.81 0.84 0.87 0.87 0.90 0.96 1.06
0.28 0.22 0.21 0.21 0.17 0.18 0.25 0.20 0.17 0.14 0.12 0.13 0.23 0.35 0.51 0.63 0.55 0.58 0.55 0.46 0.44 0.39 0.33 0.40 0.43 0.43 0.44 0.46 0.44 0.43 0.43 0.54 0.74 0.85 0.86 0.96 1.04 0.96 1.02 1.05 1.03 1.03 1.07 1.18
0.38 0.39 0.31 0.28 0.31 0.37 0.28 0.21 0.21 0.23 0.24 0.22 0.26 0.37 0.58 0.74 0.63 0.56 0.56 0.53 0.46 0.36 0.35 0.37 0.38 0.37 0.39 0.41 0.44 0.45 0.47 0.53 0.72 0.89 0.94 1.10 1.25 1.17 1.19 1.20 1.22 1.27 1.34 1.37
0.39 0.47 0.47 0.42 0.43 0.45 0.36 0.32 0.34 0.42 0.50 0.43 0.44 0.56 0.61 0.57 0.54 0.56 0.51 0.45 0.42 0.37 0.36 0.34 0.36 0.38 0.40 0.44 0.47 0.50 0.63 0.74 0.84 0.97 1.11 1.28 1.44 1.51 1.49 1.45 1.54 1.58 1.59 1.63
0.34 0.45 0.54 0.56 0.62 0.70 0.63 0.51 0.47 0.59 0.89 0.73 0.59 0.61 0.60 0.57 0.68 0.66 0.47 0.42 0.37 0.33 0.34 0.37 0.43 0.44 0.43 0.49 0.54 0.61 0.76 0.95 1.06 1.11 1.14 1.25 1.43 1.54 1.58 1.59 1.73 1.86 1.87 1.86
0.52 0.53 0.56 0.63 0.73 0.71 0.63 0.57 0.61 1.02 1.30 0.94 0.81 0.82 0.85 0.82 0.75 0.62 0.48 0.46 0.41 0.35 0.37 0.41 0.46 0.53 0.58 0.63 0.72 0.84 0.93 1.03 1.06 1.07 1.11 1.20 1.43 1.71 1.75 1.81 1.88 1.97 2.00 2.01
0.69 0.70 0.68 0.74 0.96 1.04 0.67 0.61 0.93 1.22 1.15 1.18 1.13 1.10 1.04 0.89 0.70 0.55 0.48 0.47 0.40 0.38 0.42 0.44 0.47 0.53 0.61 0.71 0.87 0.97 0.99 1.01 1.06 1.08 1.15 1.29 1.54 1.65 1.74 1.89 1.94 2.09 2.18 2.14
0.76 0.86 0.85 0.94 1.12 1.02 0.81 0.87 0.91 0.98 1.09 1.14 1.07 1.05 0.99 0.92 0.76 0.62 0.52 0.47 0.45 0.44 0.45 0.50 0.52 0.56 0.64 0.75 0.94 1.08 1.07 1.07 1.07 1.08 1.13 1.24 1.38 1.48 1.62 1.69 1.68 1.77 1.88 1.89
0.85 0.76 0.96 1.26 1.24 1.07 0.93 0.86 0.87 0.83 0.88 0.88 0.83 0.77 0.75 0.71 0.63 0.51 0.43 0.46 0.52 0.58 0.55 0.58 0.58 0.62 0.66 0.72 0.89 1.03 1.05 1.08 1.08 1.04 1.01 1.10 1.28 1.36 1.43 1.55 1.57 1.66 1.73 1.78
1.03 0.99 1.17 1.49 1.47 1.28 1.15 1.00 0.97 0.83 0.82 0.79 0.74 0.69 0.62 0.53 0.51 0.47 0.40 0.38 0.41 0.48 0.49 0.51 0.54 0.58 0.61 0.67 0.85 0.99 1.02 1.06 1.09 1.06 1.02 1.08 1.19 1.28 1.36 1.48 1.56 1.58 1.60 1.59
0.94 1.09 1.33 1.50 1.39 1.31 1.28 0.99 0.93 0.96 0.87 0.75 0.71 0.65 0.58 0.49 0.43 0.41 0.38 0.35 0.34 0.40 0.47 0.50 0.54 0.56 0.55 0.60 0.72 0.82 1.00 1.15 1.20 1.12 1.05 1.04 1.05 1.14 1.21 1.30 1.30 1.22 1.21 1.19